Location: Karlsruhe
(49.0131°N, 8.3874°E)
Time: 13:58:47
(UTC+02:00)

ISS - Pass Details

Date: 28 March 2017
Orbit: 400 x 409 km, 51.6° (Epoch: 23 April)

Event Time Altitude Azimuth Distance (km) Brightness Sun altitude
Rises 22:28:23 0° 248° (WSW) 2,314 0.4 -24.4°
Reaches altitude 10° 22:30:27 10° 248° (WSW) 1,459 -0.7 -24.7°
Enters shadow 22:31:06 15° 248° (WSW) 1,200 -1.1 -24.8°
